Weather History for Wright-Patt AFB, OH

Change the Weather History Date:

Friday, August 23, 2013

  Actual Average Record
Temperature  
Mean Temperature 74 °F -  
Max Temperature 84 °F 81 °F 96 °F (2007)
Min Temperature 66 °F 60 °F 50 °F (1997)
Cooling Degree Days 9    
Growing Degree Days 24 (Base 50)    
Moisture  
Dew Point 65 °F    
Average Humidity 81    
Maximum Humidity 100    
Minimum Humidity 47    
Precipitation  
Precipitation 0.00 in - - ()
Sea Level Pressure  
Sea Level Pressure 30.10 in    
Wind  
Wind Speed 5 mph (NNW)    
Max Wind Speed 10 mph    
Max Gust Speed -    
Visibility 8 miles    
Events      
Averages and records for this station are not official NWS values.
T = Trace of Precipitation, MM = Missing Value Source: NWS Daily Summary

Daily Weather History Graph

Daily Weather History Graph

Search for Another Location

Airport:

Trip Planner

Search our weather history database for the weather conditions in past years. The results will help you decide how hot, cold, wet, or windy it might be!

Date:

Astronomy

Aug. 23, 2013 Rise Set
Actual Time 6:55 AM EDT 8:20 PM EDT
Civil Twilight 6:27 AM EDT 8:49 PM EDT
Nautical Twilight 5:53 AM EDT 9:22 PM EDT
Astronomical Twilight 5:17 AM EDT 9:58 PM EDT
Moon 9:39 PM EDT (8/23) 9:49 AM EDT (8/23)
Length of Visible Light 14h 21m
Length of Day
13h 24m
Waning Gibbous, 91% of the Moon is Illuminated
Aug 23
Waning Gibbous
Aug 28
Last Quarter
Sep 5
New
Sep 12
First Quarter
Sep 19
Full

Hourly Weather History & Observations

Time (EDT) Temp. Heat Index Dew Point Humidity Pressure Visibility Wind Dir Wind Speed Gust Speed Precip Events Conditions
12:58 AM 68.9 °F - 67.6 °F 96% 30.07 in 9.0 mi Calm Calm - N/A   Scattered Clouds
1:18 AM 69.8 °F - 68.0 °F 94% 30.09 in 10.0 mi NNW 8.1 mph - N/A   Mostly Cloudy
1:58 AM 69.6 °F - 67.5 °F 93% 30.08 in 10.0 mi NNW 8.1 mph - N/A   Scattered Clouds
2:58 AM 68.9 °F - 67.1 °F 94% 30.06 in 10.0 mi North 5.8 mph - N/A   Mostly Cloudy
3:28 AM 68.0 °F - 66.2 °F 94% 30.07 in 9.0 mi NNW 5.8 mph - N/A   Partly Cloudy
3:58 AM 67.8 °F - 66.7 °F 96% 30.06 in 8.0 mi WNW 4.6 mph - N/A   Partly Cloudy
4:28 AM 66.2 °F - 64.4 °F 94% 30.06 in 5.0 mi West 3.5 mph - N/A   Mostly Cloudy
4:38 AM 66.2 °F - 66.2 °F 100% 30.06 in 2.0 mi West 2.3 mph - N/A   Mostly Cloudy
4:48 AM 68.0 °F - 66.2 °F 94% 30.06 in 2.0 mi WSW 3.5 mph - N/A   Mostly Cloudy
4:58 AM 67.5 °F - 66.6 °F 97% 30.06 in 2.0 mi West 3.5 mph - N/A   Mostly Cloudy
5:58 AM 68.0 °F - 66.9 °F 96% 30.07 in 2.0 mi NNW 10.4 mph - N/A   Overcast
6:58 AM 68.4 °F - 66.6 °F 94% 30.09 in 2.5 mi North 5.8 mph - N/A   Overcast
7:18 AM 68.0 °F - 66.2 °F 94% 30.09 in 3.0 mi North 6.9 mph - N/A   Overcast
7:38 AM 68.0 °F - 66.2 °F 94% 30.09 in 4.0 mi North 6.9 mph - N/A   Mostly Cloudy
7:58 AM 68.4 °F - 66.0 °F 92% 30.10 in 4.0 mi North 5.8 mph - N/A   Mostly Cloudy
8:38 AM 68.0 °F - 66.2 °F 94% 30.12 in 6.0 mi North 8.1 mph - N/A   Mostly Cloudy
8:58 AM 69.3 °F - 66.0 °F 89% 30.11 in 7.0 mi North 5.8 mph - N/A   Mostly Cloudy
9:28 AM 69.8 °F - 66.2 °F 88% 30.11 in 10.0 mi North 8.1 mph - N/A   Mostly Cloudy
9:58 AM 71.4 °F - 66.2 °F 84% 30.11 in 10.0 mi North 5.8 mph - N/A   Scattered Clouds
10:18 AM 73.4 °F - 66.2 °F 78% 30.11 in 10.0 mi Variable 5.8 mph - N/A   Partly Cloudy
10:58 AM 74.5 °F - 67.1 °F 78% 30.12 in 10.0 mi Variable 3.5 mph - N/A   Partly Cloudy
11:58 AM 77.2 °F - 68.0 °F 73% 30.12 in 10.0 mi NNE 4.6 mph - N/A   Scattered Clouds
12:58 PM 78.4 °F - 68.5 °F 72% 30.12 in 10.0 mi Variable 2.3 mph - N/A   Scattered Clouds
1:58 PM 81.3 °F 83.6 °F 66.9 °F 61% 30.11 in 10.0 mi North 9.2 mph - N/A   Scattered Clouds
2:58 PM 82.9 °F 85.0 °F 65.7 °F 56% 30.09 in 10.0 mi NNW 5.8 mph - N/A   Clear
3:58 PM 81.7 °F 82.7 °F 62.4 °F 52% 30.09 in 10.0 mi NNW 8.1 mph - N/A   Partly Cloudy
4:58 PM 81.3 °F 82.6 °F 63.1 °F 54% 30.07 in 10.0 mi NNE 4.6 mph - N/A   Partly Cloudy
5:58 PM 81.7 °F 82.2 °F 60.3 °F 48% 30.07 in 10.0 mi NNE 9.2 mph - N/A   Clear
6:58 PM 81.7 °F 82.0 °F 59.4 °F 47% 30.07 in 10.0 mi North 8.1 mph - N/A   Clear
7:58 PM 78.8 °F - 62.8 °F 58% 30.10 in 10.0 mi NNE 8.1 mph - N/A   Clear
8:58 PM 74.8 °F - 63.0 °F 66% 30.13 in 10.0 mi North 5.8 mph - N/A   Clear
9:58 PM 71.6 °F - 62.6 °F 73% 30.15 in 10.0 mi NNE 9.2 mph - N/A   Clear
10:58 PM 68.9 °F - 60.3 °F 74% 30.17 in 10.0 mi NNE 6.9 mph - N/A   Clear
11:58 PM 67.8 °F - 59.0 °F 73% 30.18 in 10.0 mi North 3.5 mph - N/A   Clear